Time,TemperatureF,DewpointF,PressureIn,WindDirection,WindDirectionDegrees,WindSpeedMPH,WindSpeedGustMPH,Humidity,HourlyPrecipIn,Conditions,Clouds,dailyrainin,SoftwareType,DateUTC
2014-03-25 00:12:00,66.9,36.1,30.01,NE,45,1.1,-999.0,32,-99.99,,,0.00,Acu-Link.com,2014-03-25 06:12:00,
2014-03-25 00:28:00,63.0,38.3,30.01,SE,135,1.7,-999.0,40,-99.99,,,0.00,Acu-Link.com,2014-03-25 06:28:00,
2014-03-25 00:43:00,60.8,38.2,30.01,SSE,157,0.0,-999.0,43,-99.99,,,0.00,Acu-Link.com,2014-03-25 06:43:00,
2014-03-25 00:58:00,59.5,39.3,30.00,West,270,0.0,-999.0,47,-99.99,,,0.00,Acu-Link.com,2014-03-25 06:58:00,
2014-03-25 01:14:00,58.5,38.9,30.00,NE,45,0.0,-999.0,48,-99.99,,,0.00,Acu-Link.com,2014-03-25 07:14:00,
2014-03-25 01:29:00,57.2,39.2,30.00,SSE,157,0.0,-999.0,51,-99.99,,,0.00,Acu-Link.com,2014-03-25 07:29:00,
2014-03-25 01:44:00,57.7,38.7,30.00,SSE,157,0.0,-999.0,49,-99.99,,,0.00,Acu-Link.com,2014-03-25 07:44:00,
2014-03-25 01:59:00,56.7,39.3,30.00,West,270,0.0,-999.0,52,-99.99,,,0.00,Acu-Link.com,2014-03-25 07:59:00,
2014-03-25 02:15:00,56.3,38.9,29.99,NNW,337,0.0,-999.0,52,-99.99,,,0.00,Acu-Link.com,2014-03-25 08:15:00,
2014-03-25 02:30:00,56.1,37.7,29.99,ENE,67,0.0,-999.0,50,-99.99,,,0.00,Acu-Link.com,2014-03-25 08:30:00,
2014-03-25 02:45:00,55.0,39.6,29.99,South,180,0.0,-999.0,56,-99.99,,,0.00,Acu-Link.com,2014-03-25 08:45:00,
2014-03-25 03:01:00,54.7,38.9,29.99,SSE,157,2.7,-999.0,55,-99.99,,,0.00,Acu-Link.com,2014-03-25 09:01:00,
2014-03-25 03:16:00,54.0,39.1,29.99,NE,45,0.0,-999.0,57,-99.99,,,0.00,Acu-Link.com,2014-03-25 09:16:00,
2014-03-25 03:31:00,53.4,38.6,29.98,NNE,22,0.0,-999.0,57,-99.99,,,0.00,Acu-Link.com,2014-03-25 09:31:00,
2014-03-25 03:47:00,53.2,39.2,29.98,SSE,157,2.2,-999.0,59,-99.99,,,0.00,Acu-Link.com,2014-03-25 09:47:00,
2014-03-25 04:02:00,52.7,38.8,29.98,SE,135,2.2,-999.0,59,-99.99,,,0.00,Acu-Link.com,2014-03-25 10:02:00,
2014-03-25 04:17:00,52.5,37.3,29.97,NW,315,1.1,-999.0,56,-99.99,,,0.00,Acu-Link.com,2014-03-25 10:17:00,
2014-03-25 04:32:00,58.6,33.7,29.98,NE,45,3.2,-999.0,39,-99.99,,,0.00,Acu-Link.com,2014-03-25 10:32:00,
2014-03-25 04:48:00,60.8,33.7,29.98,NNE,22,4.2,-999.0,36,-99.99,,,0.00,Acu-Link.com,2014-03-25 10:48:00,
2014-03-25 05:03:00,61.0,33.9,29.98,SSE,157,2.2,-999.0,36,-99.99,,,0.00,Acu-Link.com,2014-03-25 11:03:00,
2014-03-25 05:18:00,61.3,33.4,29.98,East,90,2.2,-999.0,35,-99.99,,,0.00,Acu-Link.com,2014-03-25 11:18:00,
2014-03-25 05:34:00,60.8,33.0,29.98,SE,135,2.2,-999.0,35,-99.99,,,0.00,Acu-Link.com,2014-03-25 11:34:00,
2014-03-25 05:49:00,60.1,32.4,29.98,ENE,67,1.7,-999.0,35,-99.99,,,0.00,Acu-Link.com,2014-03-25 11:49:00,
2014-03-25 06:04:00,58.1,34.5,29.99,SSE,157,2.7,-999.0,41,-99.99,,,0.00,Acu-Link.com,2014-03-25 12:04:00,
2014-03-25 06:20:00,57.0,36.4,29.99,ESE,112,0.0,-999.0,46,-99.99,,,0.00,Acu-Link.com,2014-03-25 12:20:00,
2014-03-25 06:35:00,55.0,36.7,29.99,ESE,112,0.0,-999.0,50,-99.99,,,0.00,Acu-Link.com,2014-03-25 12:35:00,
2014-03-25 06:50:00,54.3,36.6,29.98,NNE,22,0.0,-999.0,51,-99.99,,,0.00,Acu-Link.com,2014-03-25 12:50:00,
2014-03-25 07:05:00,52.7,37.4,29.98,ESE,112,0.0,-999.0,56,-99.99,,,0.00,Acu-Link.com,2014-03-25 13:05:00,
2014-03-25 07:21:00,51.8,33.8,29.98,ENE,67,1.1,-999.0,50,-99.99,,,0.00,Acu-Link.com,2014-03-25 13:21:00,
2014-03-25 07:36:00,53.1,33.4,29.99,SE,135,2.7,-999.0,47,-99.99,,,0.00,Acu-Link.com,2014-03-25 13:36:00,
2014-03-25 07:51:00,55.9,31.3,29.99,NNE,22,0.0,-999.0,39,-99.99,,,0.00,Acu-Link.com,2014-03-25 13:51:00,
2014-03-25 08:07:00,61.0,33.9,29.99,ESE,112,1.7,-999.0,36,-99.99,,,0.00,Acu-Link.com,2014-03-25 14:07:00,
2014-03-25 08:22:00,64.8,36.5,29.99,South,180,0.0,-999.0,35,-99.99,,,0.00,Acu-Link.com,2014-03-25 14:22:00,
2014-03-25 08:37:00,68.7,34.3,30.00,NNE,22,2.7,-999.0,28,-99.99,,,0.00,Acu-Link.com,2014-03-25 14:37:00,
2014-03-25 08:53:00,70.7,35.1,29.99,South,180,1.7,-999.0,27,-99.99,,,0.00,Acu-Link.com,2014-03-25 14:53:00,
2014-03-25 09:08:00,73.2,37.2,29.99,West,270,0.0,-999.0,27,-99.99,,,0.00,Acu-Link.com,2014-03-25 15:08:00,
2014-03-25 09:23:00,73.6,36.6,29.99,ESE,112,2.2,-999.0,26,-99.99,,,0.00,Acu-Link.com,2014-03-25 15:23:00,
2014-03-25 09:38:00,75.2,37.0,29.99,West,270,1.1,-999.0,25,-99.99,,,0.00,Acu-Link.com,2014-03-25 15:38:00,
2014-03-25 09:53:00,72.3,35.5,29.98,South,180,3.7,-999.0,26,-99.99,,,0.00,Acu-Link.com,2014-03-25 15:53:00,
2014-03-25 10:08:00,73.2,33.2,29.99,SSE,157,4.2,-999.0,23,-99.99,,,0.00,Acu-Link.com,2014-03-25 16:08:00,
2014-03-25 10:24:00,75.0,33.6,29.98,SE,135,4.2,-999.0,22,-99.99,,,0.00,Acu-Link.com,2014-03-25 16:24:00,
2014-03-25 10:39:00,75.9,33.2,29.98,South,180,3.7,-999.0,21,-99.99,,,0.00,Acu-Link.com,2014-03-25 16:39:00,
2014-03-25 10:54:00,77.0,34.1,29.98,SE,135,5.3,-999.0,21,-99.99,,,0.00,Acu-Link.com,2014-03-25 16:54:00,
2014-03-25 11:09:00,78.4,34.0,29.97,SE,135,7.3,-999.0,20,-99.99,,,0.00,Acu-Link.com,2014-03-25 17:09:00,
2014-03-25 11:24:00,79.3,33.5,29.96,SW,225,2.2,-999.0,19,-99.99,,,0.00,Acu-Link.com,2014-03-25 17:24:00,
2014-03-25 11:39:00,81.3,35.1,29.95,ESE,112,0.0,-999.0,19,-99.99,,,0.00,Acu-Link.com,2014-03-25 17:39:00,
2014-03-25 11:55:00,81.9,35.6,29.94,SE,135,5.8,-999.0,19,-99.99,,,0.00,Acu-Link.com,2014-03-25 17:55:00,
2014-03-25 12:10:00,82.9,35.0,29.94,SSE,157,6.3,-999.0,18,-99.99,,,0.00,Acu-Link.com,2014-03-25 18:10:00,
2014-03-25 12:25:00,83.3,36.7,29.93,SE,135,3.7,-999.0,19,-99.99,,,0.00,Acu-Link.com,2014-03-25 18:25:00,
2014-03-25 12:40:00,84.0,37.3,29.92,SSE,157,6.8,-999.0,19,-99.99,,,0.00,Acu-Link.com,2014-03-25 18:40:00,
2014-03-25 12:56:00,84.6,37.8,29.91,ESE,112,4.2,-999.0,19,-99.99,,,0.00,Acu-Link.com,2014-03-25 18:56:00,
2014-03-25 13:11:00,84.9,39.3,29.89,NW,315,2.2,-999.0,20,-99.99,,,0.00,Acu-Link.com,2014-03-25 19:11:00,
2014-03-25 13:26:00,86.5,37.9,29.88,WSW,247,3.7,-999.0,18,-99.99,,,0.00,Acu-Link.com,2014-03-25 19:26:00,
2014-03-25 13:42:00,87.1,37.0,29.88,SSW,202,4.7,-999.0,17,-99.99,,,0.00,Acu-Link.com,2014-03-25 19:42:00,
2014-03-25 13:57:00,87.4,35.7,29.87,SSE,157,5.3,-999.0,16,-99.99,,,0.00,Acu-Link.com,2014-03-25 19:57:00,
2014-03-25 14:12:00,83.5,35.5,29.86,SSE,157,8.3,-999.0,18,-99.99,,,0.00,Acu-Link.com,2014-03-25 20:12:00,
2014-03-25 14:27:00,82.4,36.0,29.85,SSE,157,5.3,-999.0,19,-99.99,,,0.00,Acu-Link.com,2014-03-25 20:27:00,
2014-03-25 14:43:00,83.5,35.5,29.84,SSE,157,4.2,-999.0,18,-99.99,,,0.00,Acu-Link.com,2014-03-25 20:43:00,
2014-03-25 14:58:00,85.6,35.8,29.83,SSE,157,3.7,-999.0,17,-99.99,,,0.00,Acu-Link.com,2014-03-25 20:58:00,
2014-03-25 15:13:00,88.7,38.3,29.82,SSE,157,4.7,-999.0,17,-99.99,,,0.00,Acu-Link.com,2014-03-25 21:13:00,
2014-03-25 15:29:00,88.5,38.1,29.81,SE,135,2.2,-999.0,17,-99.99,,,0.00,Acu-Link.com,2014-03-25 21:29:00,
2014-03-25 15:44:00,88.3,36.4,29.80,SSE,157,5.3,-999.0,16,-99.99,,,0.00,Acu-Link.com,2014-03-25 21:44:00,
2014-03-25 15:59:00,88.9,38.4,29.80,ESE,112,2.2,-999.0,17,-99.99,,,0.00,Acu-Link.com,2014-03-25 21:59:00,
2014-03-25 16:14:00,86.5,36.5,29.79,WNW,292,2.7,-999.0,17,-99.99,,,0.00,Acu-Link.com,2014-03-25 22:14:00,
2014-03-25 16:30:00,86.9,35.3,29.78,West,270,3.2,-999.0,16,-99.99,,,0.00,Acu-Link.com,2014-03-25 22:30:00,
2014-03-25 16:45:00,88.2,37.9,29.78,SW,225,1.7,-999.0,17,-99.99,,,0.00,Acu-Link.com,2014-03-25 22:45:00,
2014-03-25 17:00:00,87.8,34.4,29.77,SSE,157,7.3,-999.0,15,-99.99,,,0.00,Acu-Link.com,2014-03-25 23:00:00,
2014-03-25 17:15:00,88.0,34.5,29.78,SSE,157,6.8,-999.0,15,-99.99,,,0.00,Acu-Link.com,2014-03-25 23:15:00,
2014-03-25 17:31:00,86.9,35.3,29.77,SW,225,3.7,-999.0,16,-99.99,,,0.00,Acu-Link.com,2014-03-25 23:31:00,
2014-03-25 17:46:00,86.2,33.1,29.78,SW,225,6.8,-999.0,15,-99.99,,,0.00,Acu-Link.com,2014-03-25 23:46:00,
2014-03-25 18:01:00,82.9,36.4,29.79,SSW,202,16.1,-999.0,19,-99.99,,,0.00,Acu-Link.com,2014-03-26 00:01:00,
2014-03-25 18:16:00,81.5,36.5,29.79,SSE,157,11.4,-999.0,20,-99.99,,,0.00,Acu-Link.com,2014-03-26 00:16:00,
2014-03-25 18:31:00,80.1,36.6,29.79,South,180,7.3,-999.0,21,-99.99,,,0.00,Acu-Link.com,2014-03-26 00:31:00,
2014-03-25 18:46:00,79.3,36.0,29.79,ESE,112,4.7,-999.0,21,-99.99,,,0.00,Acu-Link.com,2014-03-26 00:46:00,
2014-03-25 19:01:00,79.0,35.7,29.80,SSE,157,5.8,-999.0,21,-99.99,,,0.00,Acu-Link.com,2014-03-26 01:01:00,
2014-03-25 19:16:00,78.3,36.3,29.80,SE,135,5.3,-999.0,22,-99.99,,,0.00,Acu-Link.com,2014-03-26 01:16:00,
2014-03-25 19:32:00,78.3,37.4,29.79,South,180,7.8,-999.0,23,-99.99,,,0.00,Acu-Link.com,2014-03-26 01:32:00,
2014-03-25 19:47:00,77.4,36.7,29.79,SE,135,5.3,-999.0,23,-99.99,,,0.00,Acu-Link.com,2014-03-26 01:47:00,
2014-03-25 20:02:00,76.8,36.2,29.79,East,90,0.0,-999.0,23,-99.99,,,0.00,Acu-Link.com,2014-03-26 02:02:00,
2014-03-25 20:17:00,75.7,36.3,29.79,East,90,0.0,-999.0,24,-99.99,,,0.00,Acu-Link.com,2014-03-26 02:17:00,
2014-03-25 20:33:00,75.6,36.3,29.79,SSE,157,3.2,-999.0,24,-99.99,,,0.00,Acu-Link.com,2014-03-26 02:33:00,
2014-03-25 20:48:00,73.8,37.7,29.80,SSE,157,3.7,-999.0,27,-99.99,,,0.00,Acu-Link.com,2014-03-26 02:48:00,
2014-03-25 21:03:00,73.0,38.0,29.81,SSE,157,2.7,-999.0,28,-99.99,,,0.00,Acu-Link.com,2014-03-26 03:03:00,
2014-03-25 21:18:00,71.8,37.8,29.80,SSW,202,3.2,-999.0,29,-99.99,,,0.00,Acu-Link.com,2014-03-26 03:18:00,
2014-03-25 21:33:00,70.5,37.6,29.80,SSE,157,1.7,-999.0,30,-99.99,,,0.00,Acu-Link.com,2014-03-26 03:33:00,
2014-03-25 21:49:00,68.0,39.3,29.80,SSE,157,0.0,-999.0,35,-99.99,,,0.00,Acu-Link.com,2014-03-26 03:49:00,
2014-03-25 22:04:00,66.7,38.9,29.81,ESE,112,2.7,-999.0,36,-99.99,,,0.00,Acu-Link.com,2014-03-26 04:04:00,
2014-03-25 22:19:00,68.5,38.3,29.82,SSW,202,2.7,-999.0,33,-99.99,,,0.00,Acu-Link.com,2014-03-26 04:19:00,
2014-03-25 22:34:00,68.2,38.0,29.82,South,180,2.2,-999.0,33,-99.99,,,0.00,Acu-Link.com,2014-03-26 04:34:00,
2014-03-25 22:50:00,67.5,38.1,29.83,ESE,112,3.7,-999.0,34,-99.99,,,0.00,Acu-Link.com,2014-03-26 04:50:00,
2014-03-25 23:05:00,69.6,37.6,29.84,ESE,112,4.7,-999.0,31,-99.99,,,0.00,Acu-Link.com,2014-03-26 05:05:00,
2014-03-25 23:20:00,69.8,37.0,29.84,South,180,4.2,-999.0,30,-99.99,,,0.00,Acu-Link.com,2014-03-26 05:20:00,
2014-03-25 23:35:00,69.1,36.4,29.84,SSE,157,4.7,-999.0,30,-99.99,,,0.00,Acu-Link.com,2014-03-26 05:35:00,
2014-03-25 23:50:00,68.5,35.8,29.85,NW,315,4.7,-999.0,30,-99.99,,,0.00,Acu-Link.com,2014-03-26 05:50:00,